Location: Austin
(30.3000°N, 97.7500°W)
Time: 22:29:00
(UTC-05:00)

Cosmos 1980 Rocket - Pass Details

Date: 20 April 2024
Orbit: 827 x 851 km, 71.0° (Epoch: 29 May)

Event Time Altitude Azimuth Distance (km) Brightness Sun altitude
Exits shadow 23:09:05 24° 6° (N) 1,654 4.0 -35.8°
Drops below altitude 10° 23:11:18 10° 13° (NNE) 2,450 4.9 -36.2°
Sets 23:13:47 0° 16° (NNE) 3,391 5.7 -36.5°
